GW4827 Weather Reports


time (UTC)temp
F
wind
direction
speed
knots
gust
knots
rain 1hr
in
rain 24hr
in
rain mn
in
humidity
%
barometer
mb
20260507060847 56 256 2.6 6.1 0.00 0.08 0.00 87 1006.6
20260507060347 56 244 2.6 4.3 0.00 0.08 0.00 87 1006.7
20260507055847 56 337 1.7 3.5 0.00 0.08 0.00 88 1006.7
20260507055347 56 278 1.7 4.3 0.00 0.08 0.00 87 1006.8
20260507054906 56 281 2.6 5.2 0.00 0.08 0.00 87 1007.0
20260507054407 56 280 1.7 7.0 0.00 0.08 0.00 87 1006.8
20260507053846 57 258 7.8 12.2 0.00 0.08 0.00 86 1007.1
20260507053346 57 331 3.5 5.2 0.00 0.08 0.00 88 1007.2
20260507052846 57 276 4.3 5.2 0.00 0.08 0.00 87 1007.0
20260507052345 57 261 4.3 6.1 0.00 0.08 0.00 87 1007.1
20260507051905 57 291 5.2 8.7 0.00 0.08 0.00 87 1007.1
20260507051345 57 273 7.0 9.6 0.00 0.08 0.00 88 1006.9
20260507050845 58 68 5.2 7.0 0.00 0.08 0.00 89 1006.7
20260507050344 58 263 6.1 9.6 0.00 0.08 0.00 90 1006.8
20260507045844 58 266 1.7 4.3 0.00 0.08 0.00 92 1006.6
20260507045344 58 265 3.5 4.3 0.00 0.08 0.00 92 1006.9
20260507044844 59 309 2.6 5.2 0.00 0.08 0.00 92 1007.0
20260507044344 59 275 2.6 8.7 0.00 0.08 0.00 93 1006.9
20260507043843 59 274 3.5 7.0 0.00 0.08 0.00 93 1006.7
20260507043403 59 271 3.5 8.7 0.00 0.08 0.00 95 1006.7
20260507042743 59 292 4.3 7.0 0.00 0.08 0.00 96 1006.5
20260507042343 59 277 3.5 3.5 0.00 0.08 0.00 96 1006.4
20260507041843 59 267 1.7 5.2 0.00 0.08 0.00 97 1006.5
20260507041343 59 263 2.6 5.2 0.00 0.08 0.00 97 1006.7
20260507040842 59 256 1.7 4.3 0.00 0.08 0.00 97 1006.7
20260507040342 59 255 3.5 3.5 0.00 0.08 0.00 98 1006.8
20260507035841 59 268 3.5 5.2 0.00 0.08 0.08 98 1006.8
20260507035402 59 262 6.1 11.3 0.00 0.08 0.08 98 1007.0
20260507034901 59 273 3.5 5.2 0.00 0.08 0.08 98 1006.9
20260507034421 59 183 1.7 5.2 0.00 0.08 0.08 98 1007.0
20260507033841 59 192 2.6 7.8 0.00 0.08 0.08 98 1006.8
20260507033341 59 186 1.7 7.0 0.00 0.08 0.08 98 1006.6
20260507032900 59 256 3.5 7.8 0.00 0.08 0.08 98 1006.8
20260507032300 59 262 1.7 10.4 0.00 0.08 0.08 98 1006.6
20260507031740 59 200 0.9 9.6 0.00 0.08 0.08 97 1006.6
20260507031240 59 188 2.6 8.7 0.00 0.08 0.08 97 1006.6
20260507030740 59 235 3.5 9.6 0.00 0.08 0.08 97 1006.6
20260507030239 59 245 5.2 9.6 0.00 0.08 0.08 97 1006.4
20260507025819 59 293 4.3 10.4 0.00 0.08 0.08 97 1006.4
20260507025239 59 253 6.1 8.7 0.00 0.08 0.08 97 1006.3
20260507024739 59 237 2.6 7.0 0.00 0.08 0.08 97 1006.2
20260507024259 59 274 9.6 9.6 0.00 0.08 0.08 97 1006.5
20260507023738 59 216 6.1 7.0 0.00 0.08 0.08 97 1006.2
20260507023238 59 195 2.6 10.4 0.00 0.08 0.08 97 1006.5
20260507022818 59 233 4.3 13.9 0.00 0.08 0.08 98 1006.5
20260507022138 59 217 7.8 11.3 0.00 0.08 0.08 98 1006.2
20260507021718 58 254 1.7 11.3 0.00 0.08 0.08 98 1006.2
20260507021138 58 203 3.5 8.7 0.00 0.08 0.08 98 1006.0
20260507020657 58 0.0 7.8 0.00 0.08 0.08 98 1006.0
20260507020137 58 228 4.3 7.8 0.00 0.08 0.08 98 1006.4
20260507015636 58 274 4.3 9.6 0.00 0.08 0.08 98 1006.5
20260507015136 58 218 9.6 12.2 0.00 0.08 0.08 98 1006.4
20260507014657 58 200 2.6 7.0 0.00 0.08 0.08 98 1006.2
20260507014136 58 240 4.3 5.2 0.00 0.08 0.08 98 1006.5
20260507013636 58 183 2.6 9.6 0.00 0.08 0.08 98 1006.5
20260507013135 58 217 0.9 6.1 0.00 0.08 0.08 98 1006.6
20260507012635 58 188 1.7 7.8 0.00 0.08 0.08 98 1006.7
20260507012035 58 185 3.5 7.8 0.00 0.08 0.08 98 1006.6
20260507011536 58 191 7.0 9.6 0.00 0.08 0.08 98 1006.9
20260507011034 58 216 3.5 5.2 0.00 0.08 0.08 98 1006.9
20260507010534 58 214 3.5 6.1 0.00 0.08 0.08 98 1006.7
20260507010034 58 208 3.5 9.6 0.00 0.08 0.08 98 1006.8
20260507005555 58 184 5.2 13.0 0.00 0.08 0.08 98 1006.9
20260507005054 58 237 5.2 5.2 0.00 0.08 0.08 98 1006.9
20260507004534 58 194 5.2 11.3 0.00 0.08 0.08 98 1007.0
20260507004033 58 239 7.0 9.6 0.00 0.08 0.08 98 1006.9
20260507003534 58 150 2.6 5.2 0.01 0.08 0.08 98 1006.8
20260507003033 58 157 1.7 6.1 0.01 0.08 0.08 98 1006.7
20260507002432 58 217 7.0 11.3 0.01 0.08 0.08 98 1006.6
20260507001932 58 159 4.3 7.8 0.02 0.08 0.08 98 1006.7
20260507001432 57 142 4.3 7.8 0.02 0.08 0.08 98 1006.6
20260507000932 58 166 3.5 11.3 0.02 0.08 0.08 98 1006.6
20260507000432 58 208 3.5 9.6 0.02 0.08 0.08 98 1006.5
20260507000011 58 228 5.2 6.1 0.02 0.08 0.08 98 1006.5
20260506235431 58 233 7.0 14.8 0.02 0.08 0.08 98 1006.3
20260506234932 58 216 7.0 14.8 0.02 0.08 0.08 98 1006.5
20260506234431 58 200 1.7 5.2 0.02 0.08 0.08 98 1006.5
20260506233931 58 195 6.1 10.4 0.02 0.07 0.07 98 1006.4
20260506233430 58 0.0 7.0 0.01 0.07 0.07 98 1006.2
20260506232930 58 210 1.7 7.8 0.01 0.07 0.07 98 1006.3
20260506232330 58 216 2.6 8.7 0.01 0.07 0.07 98 1006.4
20260506231830 58 189 5.2 7.8 0.01 0.06 0.06 97 1006.1
20260506231350 59 193 3.5 8.7 0.01 0.06 0.06 97 1006.5
20260506230829 59 247 2.6 7.0 0.00 0.06 0.06 97 1006.5
20260506230329 59 228 2.6 6.1 0.00 0.06 0.06 97 1006.4
20260506225829 59 181 1.7 7.8 0.00 0.06 0.06 97 1006.2
20260506225329 59 150 6.1 7.0 0.00 0.06 0.06 96 1006.5
20260506224848 59 251 3.5 5.2 0.00 0.06 0.06 97 1006.4
20260506224328 59 236 3.5 5.2 0.00 0.06 0.06 97 1006.4
20260506223829 59 278 3.5 5.2 0.01 0.06 0.06 97 1006.4
20260506223327 59 161 2.6 6.1 0.01 0.06 0.06 97 1006.5
20260506222828 59 163 1.7 10.4 0.02 0.06 0.06 97 1006.6
20260506222227 59 221 8.7 13.0 0.02 0.06 0.06 97 1006.6
20260506221727 59 192 1.7 13.0 0.02 0.06 0.06 97 1006.6
20260506221227 59 225 6.1 7.8 0.02 0.06 0.06 97 1006.8
20260506220727 59 207 4.3 6.1 0.02 0.06 0.06 97 1006.8
20260506220227 59 183 2.6 9.6 0.02 0.06 0.06 97 1006.8
20260506215727 59 194 7.0 8.7 0.02 0.06 0.06 97 1006.7
20260506215226 59 145 7.8 11.3 0.02 0.06 0.06 97 1006.9
20260506214726 59 228 7.8 9.6 0.02 0.05 0.05 97 1006.8
20260506214226 59 187 5.2 7.8 0.02 0.05 0.05 96 1007.0
20260506213725 60 198 3.5 18.2 0.02 0.05 0.05 96 1007.1
20260506213225 60 183 2.6 5.2 0.01 0.04 0.04 95 1007.1
20260506212725 60 0.0 12.2 0.01 0.04 0.04 94 1007.2
20260506212125 60 192 7.8 13.9 0.00 0.04 0.04 93 1007.2
20260506211725 60 194 7.8 10.4 0.00 0.03 0.03 93 1007.1
20260506211225 61 166 5.2 13.0 0.00 0.03 0.03 92 1007.3
20260506210724 61 205 3.5 9.6 0.00 0.03 0.03 92 1007.1
20260506210224 60 205 7.0 11.3 0.00 0.03 0.03 92 1007.1
20260506205724 61 141 5.2 15.6 0.00 0.03 0.03 91 1007.3
20260506205224 60 153 8.7 11.3 0.01 0.03 0.03 91 1007.2
20260506204743 60 185 6.1 7.8 0.01 0.03 0.03 92 1007.3
20260506204223 60 207 3.5 9.6 0.01 0.03 0.03 92 1007.4
20260506203723 60 225 6.1 9.6 0.02 0.03 0.03 91 1007.4
20260506203303 61 157 3.5 8.7 0.02 0.03 0.03 91 1007.7
20260506202723 61 256 3.5 17.4 0.02 0.03 0.03 90 1007.6
20260506202243 61 205 0.9 6.1 0.02 0.03 0.03 91 1007.7
20260506201722 61 155 3.5 5.2 0.02 0.03 0.03 91 1007.5
20260506201223 61 222 4.3 6.1 0.03 0.03 0.03 91 1007.3
20260506200722 61 182 4.3 12.2 0.03 0.03 0.03 91 1007.5
20260506200222 61 212 1.7 9.6 0.03 0.03 0.03 90 1007.4
20260506195722 62 227 4.3 7.0 0.03 0.03 0.03 90 1007.3
20260506195242 62 223 2.6 6.1 0.02 0.02 0.02 90 1007.3
20260506194722 62 156 3.5 5.2 0.02 0.02 0.02 88 1007.3
20260506194221 63 195 3.5 9.6 0.02 0.02 0.02 86 1007.3
20260506193801 63 175 1.7 5.2 0.02 0.02 0.02 85 1007.7
20260506193221 64 193 0.9 7.8 0.02 0.02 0.02 84 1007.8
20260506192721 64 0.0 7.0 0.01 0.01 0.01 83 1007.6
20260506192221 64 212 5.2 7.0 0.01 0.01 0.01 81 1007.7
20260506191721 65 163 4.3 11.3 0.01 0.01 0.01 80 1007.6
20260506191301 65 194 4.3 9.6 0.00 0.00 0.00 79 1007.4
20260506190720 66 176 5.2 7.8 0.00 0.00 0.00 75 1007.5
20260506190240 66 264 5.2 8.7 0.00 0.00 0.00 74 1007.3
20260506185720 67 187 7.0 13.0 0.00 0.00 0.00 71 1007.4
20260506185220 68 206 6.1 17.4 0.00 0.00 0.00 68 1007.6
20260506184720 68 169 10.4 13.9 0.00 0.00 0.00 67 1007.5
20260506184220 68 238 3.5 12.2 0.00 0.00 0.00 68 1007.6
20260506183719 69 241 5.2 6.1 0.00 0.00 0.00 68 1007.7
20260506183220 69 220 4.3 7.8 0.00 0.00 0.00 67 1007.5
20260506182719 69 191 3.5 11.3 0.00 0.00 0.00 65 1007.6
20260506182219 69 198 5.2 12.2 0.00 0.00 0.00 64 1007.8
20260506181738 70 166 7.8 13.0 0.00 0.00 0.00 63 1007.7
20260506181218 70 240 5.2 9.6 0.00 0.00 0.00 62 1007.7
20260506180717 70 201 3.5 10.4 0.00 0.00 0.00 61 1007.9
20260506180218 71 186 4.3 19.1 0.00 0.00 0.00 61 1007.7
20260506175717 71 140 11.3 18.2 0.00 0.00 0.00 60 1007.7
20260506175237 72 172 11.3 17.4 0.00 0.00 0.00 59 1008.2
20260506174717 72 132 5.2 10.4 0.00 0.00 0.00 58 1008.1
20260506174217 72 179 1.7 18.2 0.00 0.00 0.00 58 1008.0
20260506173716 73 167 10.4 13.0 0.00 0.00 0.00 58 1008.3
20260506173236 73 203 4.3 14.8 0.00 0.00 0.00 58 1008.0
20260506172716 73 217 3.5 11.3 0.00 0.00 0.00 57 1008.1
20260506172216 72 202 3.5 15.6 0.00 0.00 0.00 57 1008.2
20260506171716 72 250 6.1 9.6 0.00 0.00 0.00 60 1008.3
20260506171216 72 148 7.8 16.5 0.00 0.00 0.00 59 1008.3
20260506170715 73 187 4.3 13.9 0.00 0.00 0.00 59 1007.9
20260506170215 73 220 4.3 10.4 0.00 0.00 0.00 59 1007.8
20260506165715 72 142 7.0 16.5 0.00 0.00 0.00 61 1008.3
20260506165215 72 203 6.1 13.0 0.00 0.00 0.00 61 1008.3
20260506164755 72 242 9.6 13.0 0.00 0.00 0.00 61 1008.2
20260506164215 71 209 7.8 14.8 0.00 0.00 0.00 62 1008.5
20260506163714 71 167 3.5 15.6 0.00 0.00 0.00 62 1008.4
20260506163214 72 129 5.2 11.3 0.00 0.00 0.00 63 1008.4
20260506162714 71 148 8.7 13.9 0.00 0.00 0.00 63 1008.4
20260506162214 71 182 2.6 17.4 0.00 0.00 0.00 63 1008.5
20260506161713 71 144 7.8 9.6 0.00 0.00 0.00 63 1008.9
20260506161114 72 134 6.1 8.7 0.00 0.00 0.00 62 1008.9
20260506160613 71 148 7.0 13.0 0.00 0.00 0.00 63 1009.0
20260506160113 71 140 4.3 7.0 0.00 0.00 0.00 63 1008.8
20260506155613 71 199 2.6 8.7 0.00 0.00 0.00 63 1009.0
20260506155112 71 152 7.8 12.2 0.00 0.00 0.00 63 1009.2
20260506154612 71 216 8.7 13.0 0.00 0.00 0.00 63 1009.2
20260506154112 71 351 1.7 9.6 0.00 0.00 0.00 63 1009.3
20260506153612 71 150 2.6 9.6 0.00 0.00 0.00 62 1009.4
20260506153111 71 207 7.8 13.0 0.00 0.00 0.00 62 1009.4
20260506152612 72 263 13.0 14.8 0.00 0.00 0.00 61 1009.6
20260506152111 72 275 5.2 9.6 0.00 0.00 0.00 60 1009.8
20260506151511 72 215 6.1 14.8 0.00 0.00 0.00 61 1009.6
20260506151050 72 166 2.6 9.6 0.00 0.00 0.00 61 1009.6
20260506150531 72 178 1.7 17.4 0.00 0.00 0.00 62 1009.7
20260506150010 72 228 4.3 7.8 0.00 0.00 0.00 62 1009.6
20260506145510 71 222 2.6 13.0 0.00 0.00 0.00 63 1009.8
20260506145010 71 180 2.6 7.0 0.00 0.00 0.00 63 1009.7
20260506144510 71 168 1.7 9.6 0.00 0.00 0.00 64 1009.4
20260506144010 70 187 1.7 14.8 0.00 0.00 0.00 65 1009.6
20260506143509 70 160 3.5 4.3 0.00 0.00 0.00 65 1009.5
20260506143009 70 220 7.0 13.0 0.00 0.00 0.00 65 1009.5
20260506142509 70 207 2.6 15.6 0.00 0.00 0.00 65 1009.8
20260506142009 69 223 2.6 12.2 0.00 0.00 0.00 66 1009.7
20260506141529 69 151 7.0 11.3 0.00 0.00 0.00 67 1009.6
20260506140908 69 199 3.5 14.8 0.00 0.00 0.00 68 1009.4
20260506140408 68 204 8.7 13.0 0.00 0.00 0.00 69 1009.5
20260506135908 68 210 2.6 7.8 0.00 0.00 0.00 70 1009.6
20260506135408 68 226 7.0 12.2 0.00 0.00 0.00 71 1009.7
20260506134927 67 135 6.1 8.7 0.00 0.00 0.00 72 1009.5
20260506134407 67 154 4.3 11.3 0.00 0.00 0.00 73 1009.7
20260506133907 67 197 2.6 7.8 0.00 0.00 0.00 73 1009.7
20260506133407 66 187 4.3 11.3 0.00 0.00 0.00 75 1010.1
20260506132907 66 181 2.6 10.4 0.00 0.00 0.00 75 1010.3
20260506132407 65 166 3.5 8.7 0.00 0.00 0.00 75 1010.2
20260506131906 65 156 1.7 10.4 0.00 0.00 0.00 76 1010.4
20260506131406 65 184 5.2 8.7 0.00 0.00 0.00 76 1010.2
20260506130826 65 161 2.6 10.4 0.00 0.00 0.00 76 1010.3
20260506130306 65 190 2.6 11.3 0.00 0.00 0.00 76 1010.0
20260506125845 65 204 7.0 9.6 0.00 0.00 0.00 77 1010.1
20260506125306 64 147 5.2 11.3 0.00 0.00 0.00 78 1010.0
20260506124805 64 205 7.0 12.2 0.00 0.00 0.00 78 1010.2
20260506124305 63 189 4.3 12.2 0.00 0.00 0.00 79 1010.1
20260506123804 63 160 2.6 8.7 0.00 0.00 0.00 80 1010.3
20260506123324 63 196 0.9 12.2 0.00 0.00 0.00 81 1010.4
20260506122804 62 149 5.2 7.8 0.00 0.00 0.00 81 1010.3
20260506122306 62 255 0.9 7.0 0.00 0.00 0.00 82 1010.3
20260506121804 61 138 5.2 11.3 0.00 0.00 0.00 83 1010.1
20260506121204 61 184 2.6 9.6 0.00 0.00 0.00 83 1010.2
20260506120803 61 204 2.6 7.8 0.00 0.00 0.00 84 1010.6
20260506120303 61 176 5.2 7.0 0.00 0.00 0.00 84 1010.2
20260506115803 61 208 2.6 7.0 0.00 0.00 0.00 84 1010.7
20260506115306 60 155 3.5 8.7 0.00 0.00 0.00 84 1010.6
20260506114803 60 183 4.3 7.8 0.00 0.00 0.00 84 1010.6
20260506114402 60 217 10.4 13.0 0.00 0.00 0.00 85 1010.7
20260506113802 60 152 6.1 7.8 0.00 0.00 0.00 85 1010.7
20260506113302 60 218 5.2 7.8 0.00 0.00 0.00 84 1011.0
20260506112902 60 242 1.7 15.6 0.00 0.00 0.00 84 1010.8
20260506112305 60 189 5.2 5.2 0.00 0.00 0.00 84 1010.7
20260506111722 60 151 3.5 4.3 0.00 0.00 0.00 84 1010.6
20260506111201 60 252 5.2 13.0 0.00 0.00 0.00 84 1010.7
20260506110721 60 152 2.6 9.6 0.00 0.00 0.00 85 1010.6
20260506110201 60 174 7.8 10.4 0.00 0.00 0.00 85 1010.6
20260506105701 60 199 3.5 6.1 0.00 0.00 0.00 85 1010.5
20260506105322 60 201 5.2 6.1 0.00 0.00 0.00 85 1010.4
20260506104700 60 178 5.2 9.6 0.00 0.00 0.00 85 1010.4
20260506104200 60 229 1.7 7.8 0.00 0.00 0.00 85 1010.6
20260506103720 60 158 9.6 10.4 0.00 0.00 0.00 85 1010.6
20260506103159 60 242 2.6 7.8 0.00 0.00 0.00 85 1010.7
20260506102659 60 214 3.5 6.1 0.00 0.00 0.00 85 1010.7
20260506102240 60 153 3.5 3.5 0.00 0.00 0.00 85 1010.6
20260506101719 60 233 5.2 5.2 0.00 0.00 0.00 85 1010.7
20260506101059 60 232 0.9 10.4 0.00 0.00 0.00 84 1010.5
20260506100559 60 179 5.2 11.3 0.00 0.00 0.00 84 1010.5
20260506100058 60 237 4.3 7.0 0.00 0.00 0.00 84 1010.5
20260506095558 60 201 8.7 9.6 0.00 0.00 0.00 84 1010.6
20260506095059 60 155 4.3 5.2 0.00 0.00 0.00 84 1010.2
20260506094558 60 0.0 12.2 0.00 0.00 0.00 84 1010.2
20260506094057 60 150 2.6 7.8 0.00 0.00 0.00 84 1010.2
20260506093557 60 228 7.8 11.3 0.00 0.00 0.00 84 1010.5
20260506093057 60 192 0.9 9.6 0.00 0.00 0.00 84 1010.4
20260506092558 60 210 5.2 6.1 0.00 0.00 0.00 83 1010.5
20260506092057 60 244 1.7 6.1 0.00 0.00 0.00 83 1010.3
20260506091636 60 217 1.7 4.3 0.00 0.00 0.00 83 1010.4
20260506091016 60 250 3.5 5.2 0.00 0.00 0.00 83 1010.4
20260506090556 60 226 7.8 9.6 0.00 0.00 0.00 83 1010.4
20260506090056 60 189 4.3 4.3 0.00 0.00 0.00 83 1010.2
20260506085555 60 217 4.3 5.2 0.00 0.00 0.00 82 1010.4
20260506085056 61 140 4.3 10.4 0.00 0.00 0.00 82 1010.6
20260506084555 60 220 5.2 11.3 0.00 0.00 0.00 82 1010.4
20260506084115 61 151 3.5 7.8 0.00 0.00 0.00 82 1010.5
20260506083615 61 236 3.5 9.6 0.00 0.00 0.00 81 1010.7
20260506083115 61 187 4.3 5.2 0.00 0.00 0.00 81 1010.4
20260506082554 61 224 0.9 5.2 0.00 0.00 0.00 81 1010.4
20260506082055 61 264 2.6 9.6 0.00 0.00 0.00 81 1010.5
20260506081554 61 234 4.3 9.6 0.00 0.00 0.00 81 1010.2
20260506081054 61 139 5.2 6.1 0.00 0.00 0.00 80 1010.4
20260506080554 61 235 3.5 11.3 0.00 0.00 0.00 80 1010.5
20260506073052 62 171 4.3 9.6 0.00 0.00 0.00 78 1010.5
20260506072551 62 208 6.1 13.0 0.00 0.00 0.00 78 1010.5
20260506072052 62 255 1.7 10.4 0.00 0.00 0.00 78 1010.4
20260506071551 62 220 4.3 9.6 0.00 0.00 0.00 78 1010.2
20260506071051 62 193 2.6 9.6 0.00 0.00 0.00 77 1010.4
20260506070551 62 224 3.5 8.7 0.00 0.00 0.00 77 1010.4
20260506062050 63 229 7.8 10.4 0.00 0.00 0.00 74 1010.0
20260506061549 63 204 2.6 13.0 0.00 0.00 0.00 74 1010.1
20260506061049 63 223 6.1 13.9 0.00 0.00 0.00 73 1010.1